Location: ??????
(41.3794°N, 22.5014°E)
Time: 21:47:21
(UTC+00:00)

BREEZE-M DEB (TANK) - Pass Details

Date: 30 November 2020
Orbit: 320 x 13925 km, 49.6° (Epoch: 18 January)

Event Time Altitude Azimuth Distance (km) Brightness Sun altitude
Rises 15:53:20 0° 224° (SW) 9,001 10.3 -9.7°
Reaches altitude 10° 16:01:52 10° 222° (SW) 5,905 9.1 -11.2°
Maximum altitude 16:14:06 57° 148° (SSE) 1,154 4.3 -13.3°
Enters shadow 16:16:48 21° 76° (ENE) 1,496 4.4 -13.8°
